Wind_Speed
32 32 32 32 33 35 36 37 39 40 42 43 45 46 47 48 50 51 53 54 54 53 51 49 48 47 48 48 49 51 53 55 57 59 61 62 64 65 66 67 69 70 72 74 76 78 80 81 83 85 87 88 90 91 92 93 94 94 95 95 96 97 98 100 101 101 100 101 102 102 102 103 102 101 103 106 107 108 109 109 111 113 115 116 118
33 34 34 35 36 37 38 39 40 42 44 45 46 47 48 49 50 51 51 50 48 47 46 46 47 48 49 50 52 54 56 58 60 61 62 63 65 66 67 69 71 72 74 77 78 80 82 84 85 87 88 90 91 92 92 93 93 94 94 95 95 97 99 100 102 103 102 101 101 100 99 100 101 102 104 107 110 112 114 115 117 119 120 122 124
33 34 35 36 37 38 39 40 42 43 44 46 47 48 49 49 48 47 46 45 45 45 46 47 48 50 52 54 56 57 59 60 61 62 63 64 66 68 70 72 74 75 78 79 81 83 84 85 86 87 88 89 90 91 92 92 92 93 93 95 96 98 99 101 102 103 103 101 100 99 99 100 103 105 108 111 113 116 118 120 122 125 126 127 127
32 33 34 35 36 38 39 41 42 44 45 46 47 47 47 46 45 44 43 44 45 46 47 49 51 53 55 56 57 59 60 61 62 64 65 67 69 71 73 75 76 78 80 81 82 83 84 85 86 87 88 88 89 90 90 91 91 92 94 95 97 98 99 101 103 104 104 102 100 100 102 104 106 109 112 115 117 119 122 124 127 130 130 127 122
32 34 35 36 37 39 40 42 43 44 45 45 45 44 43 42 42 42 43 45 46 48 50 52 54 55 56 58 59 60 62 63 65 67 69 70 72 74 75 77 78 80 81 82 83 83 84 85 86 87 87 88 88 89 89 90 91 93 95 97 98 99 100 102 103 104 105 104 104 104 106 109 111 114 117 120 121 123 126 128 129 128 123 116 109
34 35 36 37 38 40 41 41 41 41 41 40 40 40 40 40 42 43 45 47 49 51 52 54 55 57 58 60 62 63 65 66 68 70 71 73 74 76 77 78 80 81 82 82 83 84 84 85 86 87 87 87 88 88 89 91 93 95 96 98 99 101 102 103 104 105 106 107 108 109 111 114 116 118 121 123 125 126 127 127 123 116 108 100 94
34 35 36 37 38 38 37 37 36 36 36 36 37 38 40 42 44 46 48 49 51 53 54 56 58 60 61 63 64 66 67 69 70 72 73 75 76 77 79 80 81 82 82 83 83 84 84 85 85 86 86 87 88 89 91 92 94 96 98 99 101 102 103 104 106 107 109 110 112 114 116 118 120 122 124 126 126 125 122 117 109 100 92 87 84
35 35 35 34 33 32 32 32 33 33 35 37 39 41 43 45 46 48 50 51 53 55 57 59 60 62 63 65 66 68 69 71 72 74 75 77 78 80 81 82 82 83 83 83 83 83 84 84 84 85 86 87 88 90 92 94 96 98 99 101 102 104 105 106 108 109 111 113 115 118 120 122 123 124 125 124 121 116 109 102 96 90 84 79 76
34 33 32 31 30 30 31 32 34 36 38 40 42 44 46 47 49 51 53 54 56 58 59 60 61 63 65 66 68 69 71 72 74 76 77 78 80 81 82 83 83 83 83 83 83 83 83 83 84 84 86 87 89 91 93 96 98 99 101 103 104 106 107 108 110 112 114 116 118 121 122 123 123 123 121 116 110 102 96 90 87 84 81 76 71
31 30 30 30 31 32 33 35 37 39 41 43 45 46 48 50 52 53 55 56 57 58 59 61 62 64 66 67 69 70 72 74 75 77 79 80 81 82 82 83 83 82 82 82 82 82 82 82 83 84 86 87 89 92 94 97 99 101 103 105 107 108 109 110 112 114 116 119 120 122 123 122 120 116 110 104 98 92 87 84 83 81 79 76 70
29 29 30 31 33 35 37 38 40 41 43 45 47 49 50 52 54 55 56 57 58 59 60 62 63 65 67 68 70 72 74 75 77 79 80 81 82 82 82 82 81 81 81 80 81 81 81 82 83 84 85 87 89 92 95 98 101 103 105 107 108 109 111 112 114 116 119 120 121 121 121 118 112 105 99 94 89 85 83 82 81 80 78 77 72
29 30 32 34 36 38 39 40 42 44 46 48 49 51 52 53 54 55 56 58 58 60 61 63 65 66 68 70 72 74 76 78 79 80 81 82 82 81 81 80 80 80 80 80 80 80 81 81 83 84 86 88 91 93 96 99 102 104 106 107 108 110 111 113 115 117 119 120 120 119 115 109 102 96 91 88 84 82 81 80 80 80 78 76 74
31 33 35 37 38 40 41 42 44 46 48 49 50 51 52 54 55 56 58 59 60 62 63 65 67 69 71 73 75 76 78 80 81 82 82 82 81 80 79 79 79 79 79 79 79 79 80 81 83 85 87 90 93 96 98 101 103 104 106 108 109 110 111 113 116 117 118 118 116 112 105 98 93 89 85 84 83 82 81 80 79 80 79 76 75
33 35 37 39 40 42 42 43 45 47 49 50 51 52 54 55 56 58 59 60 62 64 66 68 70 71 73 75 77 79 80 82 83 83 83 82 80 79 78 78 78 78 78 78 78 79 81 82 84 86 89 92 95 98 101 103 104 105 107 108 109 110 112 114 115 116 116 115 111 104 96 91 88 86 83 83 84 83 83 82 81 80 79 77 75
35 37 39 41 42 42 43 44 46 48 50 51 53 54 56 57 58 60 61 63 65 67 68 70 72 73 75 77 79 80 81 83 84 84 82 80 78 77 77 77 77 77 77 77 78 80 81 83 85 88 91 94 98 101 103 105 106 106 107 109 110 111 113 114 115 115 114 110 103 95 90 88 85 84 83 83 84 85 85 84 83 83 82 79 76
37 39 41 43 43 43 43 45 48 51 52 53 55 57 58 59 61 62 64 66 67 69 70 72 73 75 77 78 80 81 82 84 85 83 81 78 77 76 76 76 76 76 76 77 78 80 82 84 87 90 93 96 99 102 105 106 106 107 108 109 110 112 113 114 114 113 109 102 95 90 87 85 83 83 83 84 85 86 86 86 85 85 85 82 78
38 41 43 43 43 44 45 48 51 53 55 56 57 59 60 62 63 64 66 68 69 70 71 73 74 76 78 79 80 82 84 86 85 82 79 77 76 75 75 75 75 75 76 78 79 81 83 86 89 92 95 98 101 103 105 106 107 109 109 110 111 112 113 113 112 109 101 93 88 85 84 82 82 82 83 84 85 87 88 87 86 87 87 86 82
41 44 45 44 45 46 48 51 54 56 57 58 59 61 62 64 65 66 68 69 70 72 73 74 76 78 79 80 81 83 86 86 83 79 77 76 75 75 75 75 75 75 76 78 80 82 84 87 91 94 97 99 102 104 105 107 109 110 110 111 112 112 112 112 109 102 94 88 85 83 82 82 82 82 83 83 84 86 88 88 88 88 88 88 86
45 46 46 46 47 49 51 54 57 59 60 61 62 63 65 66 67 68 70 71 72 73 74 76 78 79 80 80 82 84 86 84 80 77 76 76 75 75 74 74 75 75 76 78 80 82 85 88 92 95 98 101 103 104 106 108 109 110 111 112 112 111 111 108 103 96 90 86 83 82 82 82 83 83 83 84 85 86 88 89 89 90 90 89 88
48 48 49 50 51 52 55 58 60 62 63 64 65 66 67 68 69 70 72 73 74 75 76 78 79 80 80 81 83 85 85 81 78 76 76 76 75 75 74 74 75 75 77 79 80 83 86 89 92 96 99 102 104 105 106 107 109 110 111 112 112 111 108 104 97 91 88 86 84 84 84 84 84 85 85 86 87 88 89 90 91 92 92 91 90
50 50 52 53 54 56 58 61 63 65 66 67 68 69 70 71 71 72 73 74 75 76 77 79 80 81 81 83 85 85 82 78 76 76 76 76 75 75 75 75 75 76 77 79 81 84 87 90 94 97 101 102 103 104 104 106 108 110 111 111 110 108 104 99 93 89 87 87 86 86 85 85 86 87 88 89 90 91 92 93 93 94 94 93 92
52 53 55 56 58 59 61 64 66 67 68 69 70 71 72 72 72 73 74 75 75 77 78 79 80 81 82 84 85 83 78 75 75 76 76 75 75 75 75 76 76 77 78 79 82 85 89 92 96 99 100 101 101 103 104 106 108 109 109 108 105 102 98 94 90 88 88 88 87 87 87 88 89 90 92 93 95 96 97 97 96 96 95 94 93
55 56 57 59 60 61 63 65 66 68 69 70 71 71 72 72 73 73 74 75 76 78 78 79 81 82 84 85 83 78 75 74 75 75 75 74 75 75 76 77 77 79 80 81 84 87 91 94 97 98 98 99 101 102 104 106 107 107 106 104 100 97 94 91 90 89 89 89 89 89 90 92 94 95 96 98 100 101 101 99 97 95 93 91 90
57 58 59 60 61 62 63 65 66 68 69 69 69 70 70 71 72 73 75 76 77 78 78 80 81 83 84 82 78 75 74 74 74 74 73 73 74 75 76 77 79 80 81 83 86 89 92 94 95 96 97 99 101 102 104 105 106 106 105 102 98 95 92 91 91 91 90 91 91 92 94 96 98 100 102 104 104 102 99 96 92 88 86 84 83
58 59 59 60 61 62 63 65 67 68 68 68 68 68 69 70 71 73 75 76 77 78 79 80 82 82 81 78 74 73 74 73 73 72 72 73 74 75 76 77 79 81 83 85 88 90 92 93 94 95 97 99 101 102 104 105 106 106 104 100 96 93 91 91 92 92 92 93 94 96 98 100 102 105 106 105 101 96 91 87 83 80 78 76 74
58 59 60 61 62 63 64 66 67 66 66 66 66 66 68 70 72 73 75 76 77 78 79 80 81 79 76 73 73 73 73 72 71 71 72 72 73 74 76 78 80 82 84 86 88 89 91 92 93 95 98 100 102 103 105 106 106 105 101 97 93 92 92 92 93 94 94 96 97 99 101 104 106 106 104 99 92 87 83 79 75 72 70 68 66
59 60 61 62 63 64 64 65 65 65 65 65 65 66 67 70 72 73 74 75 76 77 78 79 77 75 73 72 72 72 72 71 70 71 71 72 73 74 76 78 80 82 84 86 88 90 91 93 95 97 99 101 103 104 106 106 104 101 97 93 92 92 93 94 95 96 97 99 100 103 105 107 106 102 96 89 83 79 76 72 69 65 63 61 58
60 61 62 63 63 63 63 63 64 64 64 64 65 65 67 69 71 72 73 74 75 77 77 76 74 72 71 71 72 71 71 70 70 70 71 72 73 74 77 79 81 83 85 87 89 91 93 94 96 98 99 101 102 104 105 103 100 96 92 90 91 92 93 95 97 98 100 101 104 106 108 106 101 94 87 81 76 72 69 66 63 60 57 55 51
61 61 61 61 61 61 62 62 62 63 63 64 64 65 67 69 70 71 73 74 75 75 75 73 72 71 71 71 71 70 69 69 70 71 71 72 73 75 77 79 82 84 87 90 91 93 94 95 97 98 99 101 102 103 102 99 95 92 89 89 91 92 94 96 98 99 101 104 106 107 104 99 92 85 79 73 68 64 61 59 56 53 51 49 46
60 60 59 59 59 60 61 61 62 62 63 63 64 65 67 69 70 71 73 74 74 73 72 71 71 71 70 70 70 69 68 68 69 70 70 72 74 76 78 80 83 86 88 91 92 93 94 95 97 98 100 101 102 101 100 97 93 90 89 90 92 94 96 98 99 100 103 105 106 103 97 90 83 77 71 65 60 56 54 52 50 47 45 43 40
58 58 57 57 58 60 60 61 61 62 62 63 64 65 67 68 70 71 72 72 71 71 71 70 70 70 70 69 68 67 67 68 68 69 70 72 74 76 78 81 84 87 89 90 91 92 94 95 97 98 100 101 101 100 97 94 91 89 89 91 93 95 97 98 99 102 104 105 102 95 88 82 75 69 63 58 53 49 47 45 43 41 39 37 34
56 56 56 57 59 60 60 60 60 61 62 63 64 65 66 67 68 69 69 69 70 70 69 69 69 69 69 67 66 65 66 67 68 69 71 72 74 77 79 82 85 87 89 90 90 92 93 95 96 98 99 100 99 97 94 91 89 89 91 92 94 96 98 99 100 103 104 101 94 87 80 74 68 62 56 52 48 44 41 39 38 35 33 31 29
55 56 57 58 58 58 58 58 59 60 61 61 62 63 64 65 66 67 68 68 68 68 68 68 68 68 67 66 65 65 66 67 67 69 71 73 75 77 80 83 86 87 88 89 90 91 93 94 96 97 98 98 96 94 91 89 89 91 93 94 96 97 98 99 102 103 101 94 86 79 73 67 61 56 51 47 43 39 36 34 32 29 27 25 24
57 57 58 57 57 57 57 57 57 58 58 59 60 61 62 63 65 66 66 66 66 66 67 67 67 67 65 65 65 66 66 67 68 69 71 73 75 78 81 83 86 87 87 88 89 91 93 94 95 96 96 95 93 90 88 88 89 91 93 95 97 97 98 100 102 100 95 87 79 73 66 61 56 51 46 42 38 35 32 29 26 24 22 21 20
58 57 56 55 55 55 55 55 56 56 57 57 59 60 61 63 64 64 64 65 65 65 66 66 66 65 64 64 65 66 66 67 68 70 72 74 76 78 81 83 85 86 86 87 89 91 92 93 94 95 94 92 90 87 86 87 89 92 94 96 97 98 99 101 100 96 88 80 72 66 60 55 51 46 41 37 33 29 27 24 22 21 19 19 18
56 54 54 54 54 54 54 55 55 56 57 58 59 60 60 61 62 62 63 63 64 64 65 65 64 63 63 64 65 65 66 67 69 70 72 74 76 78 81 82 83 83 84 86 88 90 92 93 93 93 92 89 87 85 86 87 89 92 94 96 96 97 99 100 97 89 81 73 66 60 54 50 46 41 36 32 28 25 22 20 19 19 18 17 17
53 52 52 54 54 54 54 54 55 56 56 57 57 58 59 60 60 61 62 62 63 64 64 64 63 62 63 64 64 65 66 68 69 71 72 74 76 79 80 81 81 82 84 86 87 89 91 92 92 92 89 86 84 83 85 87 89 91 94 95 95 97 99 98 92 83 75 68 61 54 49 45 41 37 31 27 24 22 20 19 18 18 18 17 16
52 52 53 54 54 54 54 54 55 55 55 55 56 57 58 59 60 61 62 62 62 63 63 63 62 62 63 63 64 65 66 68 69 71 73 74 77 78 79 80 81 82 84 85 87 88 90 91 91 90 87 84 82 82 84 86 89 91 93 93 94 97 98 94 87 78 69 63 56 50 45 41 37 32 27 22 20 19 19 18 17 17 18 18 17
53 53 54 54 53 53 53 53 53 53 54 54 55 56 58 59 61 62 62 62 62 63 62 62 62 63 63 63 64 65 67 68 69 71 73 75 76 78 78 79 80 82 83 85 86 88 89 90 89 87 84 81 81 82 84 86 88 90 91 92 94 96 95 89 81 72 64 58 52 46 41 37 33 28 23 20 18 18 18 18 17 17 17 17 17
53 53 53 52 52 52 52 52 52 52 53 55 56 57 59 61 62 62 62 63 63 62 62 62 62 63 63 63 64 65 67 68 69 71 73 74 76 77 77 78 79 81 82 84 86 87 89 89 87 84 81 79 80 81 83 86 88 89 90 91 93 94 92 84 75 67 60 53 47 42 37 32 28 24 21 19 18 17 16 16 17 17 16 16 15
53 52 51 51 51 51 51 51 51 52 54 55 57 58 60 61 62 62 63 63 62 61 61 61 62 62 63 63 64 65 67 68 69 70 72 73 75 75 76 77 78 80 81 83 85 87 88 87 85 82 79 77 78 81 83 86 88 89 89 90 92 92 88 80 70 62 56 50 44 39 34 29 24 21 20 19 19 18 17 16 16 16 16 15 13
53 51 50 49 49 49 49 50 51 53 54 55 57 59 61 62 62 62 62 61 60 60 60 61 62 62 62 63 64 66 67 68 69 70 72 73 74 74 75 76 78 79 81 83 85 86 86 85 82 79 76 76 77 80 83 85 87 87 87 89 90 89 83 74 66 58 52 46 41 36 30 26 22 20 19 19 18 18 17 16 16 16 15 14 12
51 49 48 47 47 47 49 50 51 52 54 56 57 59 60 61 61 61 60 60 59 59 60 61 61 61 62 63 64 66 67 68 69 70 72 73 73 74 75 76 78 79 81 82 84 85 84 82 79 76 74 75 77 79 82 84 85 86 86 87 89 86 79 70 61 54 48 43 38 34 29 24 21 20 19 18 18 17 17 16 16 15 14 13 12
48 47 46 46 46 47 48 49 50 51 53 55 57 59 59 60 60 60 59 58 58 59 60 60 60 61 62 64 65 66 67 68 69 70 72 72 73 74 75 76 77 79 80 82 83 83 82 79 76 74 73 74 77 79 81 83 84 84 84 86 86 83 75 65 57 50 44 40 35 32 28 24 21 20 19 18 17 17 16 15 15 14 13 12 12
46 45 45 45 46 47 47 48 49 51 53 55 57 58 59 59 59 58 58 57 58 59 60 60 60 61 63 64 65 66 67 68 69 70 71 72 72 73 74 75 76 78 80 81 82 82 80 77 74 72 72 74 76 79 80 82 83 83 83 84 84 80 71 61 53 46 41 36 33 30 27 25 22 21 20 18 18 17 16 15 14 13 12 12 12
44 44 44 45 45 45 46 47 49 51 54 55 57 57 58 58 57 57 57 57 57 59 60 60 61 62 63 64 65 66 67 68 69 70 71 71 72 72 73 75 76 77 79 81 81 80 78 74 71 70 70 73 75 78 79 81 82 81 81 83 82 78 69 58 50 43 38 34 31 29 27 25 23 21 20 19 17 17 16 14 13 12 12 12 12
43 43 43 43 44 45 47 49 51 53 55 56 56 56 56 56 56 56 56 56 58 59 60 60 61 62 63 64 65 66 67 68 69 70 70 71 71 72 73 74 75 77 79 79 79 78 76 72 70 69 69 72 74 76 78 79 80 79 80 81 81 76 67 56 47 40 35 32 30 28 26 25 23 22 21 19 18 16 15 13 12 12 12 11 11
41 41 42 42 44 46 48 50 52 54 55 55 55 54 54 55 55 56 56 57 58 59 60 60 61 62 63 64 65 66 67 68 69 69 69 70 70 71 72 73 75 77 78 79 78 76 73 70 68 67 68 71 73 75 76 78 78 78 78 79 79 75 66 55 45 38 33 31 29 28 26 25 23 22 21 20 18 16 15 13 12 12 11 11 10
40 41 42 44 46 48 50 52 54 55 54 54 53 53 54 54 55 55 56 57 58 59 60 61 62 63 64 65 65 66 67 67 68 68 69 69 69 70 71 73 74 76 77 78 77 75 71 68 66 66 67 70 72 74 75 76 77 76 76 77 77 73 65 55 45 37 32 29 28 27 26 25 24 22 20 19 18 16 14 12 12 12 11 10 10
40 42 44 46 48 50 52 53 54 54 53 52 52 52 53 54 55 55 56 57 58 59 60 61 62 63 64 64 65 66 66 67 67 67 68 68 69 69 71 72 74 76 77 77 76 73 69 66 65 65 67 69 71 72 73 74 75 75 75 75 75 72 64 54 45 37 32 29 28 27 26 25 24 22 20 19 18 16 14 12 12 12 11 10 10
42 44 46 48 50 52 53 54 54 53 52 51 51 52 53 54 55 55 56 57 59 60 61 62 62 63 64 64 65 66 66 66 67 67 67 67 68 69 70 72 74 75 76 76 74 71 68 65 63 64 66 68 69 70 71 72 73 73 73 73 73 71 64 55 45 37 32 29 28 27 26 25 24 22 20 19 17 15 13 12 12 12 11 10 9
Wind_Direction
283 283 283 282 282 281 281 282 282 282 282 282 283 284 285 284 284 284 284 284 285 286 288 289 291 293 294 295 296 297 298 299 299 300 300 300 300 300 300 301 301 302 302 303 303 302 302 303 303 304 304 304 304 304 304 303 303 303 302 302 301 301 301 301 301 301 301 300 300 299 299 298 298 297 297 297 297 296 296 296 295 295 295 294 294
276 277 279 279 280 281 282 283 283 283 283 284 284 284 283 283 283 284 285 286 288 290 292 293 294 295 296 297 298 298 299 299 300 300 301 301 301 301 301 302 302 302 303 302 302 302 303 304 304 305 305 305 305 305 304 304 303 303 302 302 302 302 302 302 302 301 301 301 300 299 299 298 298 298 297 298 298 298 298 298 297 297 297 296 296
275 276 277 278 280 281 281 282 281 282 282 282 282 282 282 284 285 287 288 290 292 293 294 294 295 296 297 298 299 299 300 300 301 301 301 301 302 302 302 302 302 302 302 302 303 303 304 305 305 306 306 306 305 305 304 304 303 303 303 303 303 303 303 303 302 302 302 301 300 300 299 299 299 299 299 299 299 299 300 299 299 299 299 298 298
275 275 276 277 278 278 277 277 277 278 279 280 281 282 284 286 288 290 291 292 293 293 294 295 296 297 298 299 300 301 301 301 302 302 302 302 302 302 302 302 302 302 302 303 304 304 305 306 306 306 306 306 306 305 305 304 304 304 304 304 304 304 304 303 303 302 302 301 301 301 300 300 300 301 301 301 301 301 301 301 301 301 300 300 298
273 274 275 275 275 274 274 275 277 278 279 281 283 284 286 287 289 290 291 292 293 295 296 298 299 300 301 301 302 302 302 303 303 303 302 302 302 302 302 302 302 303 303 304 305 305 306 306 307 307 307 307 307 306 305 305 305 305 305 305 305 304 304 304 303 303 303 302 302 302 302 302 303 303 303 303 303 303 303 303 303 302 301 299 297
272 273 274 274 275 275 276 277 278 280 281 282 283 285 286 287 289 291 293 295 297 298 299 300 301 302 302 303 303 303 303 303 302 302 302 302 302 302 302 303 303 303 304 304 305 306 306 307 307 308 308 308 307 307 306 306 306 306 306 306 306 305 305 304 304 304 304 304 304 304 304 305 305 305 305 305 305 305 304 304 303 301 300 298 296
273 274 274 275 276 276 277 279 280 281 282 283 285 287 289 292 294 296 298 299 300 301 301 302 302 303 303 303 303 303 303 303 303 303 303 303 303 303 303 303 303 304 304 305 306 306 307 308 308 308 308 308 308 307 307 307 308 307 307 307 306 306 306 305 305 305 305 305 306 306 307 307 307 307 307 307 307 306 305 304 302 300 298 297 296
276 276 276 277 278 279 280 281 283 284 286 288 291 293 295 297 299 300 301 301 301 302 302 302 303 303 303 304 304 304 304 304 304 304 304 304 304 304 304 304 304 305 305 305 306 307 307 308 308 308 309 308 309 309 309 309 309 309 308 308 307 307 306 306 306 306 307 307 308 308 308 309 309 309 308 308 308 306 305 303 301 300 298 297 297
279 279 280 281 282 283 284 286 288 290 292 294 296 298 299 299 300 301 301 301 301 302 303 303 304 304 305 305 305 305 306 306 306 305 305 305 305 304 305 305 305 305 305 306 307 307 308 309 309 309 309 310 310 310 310 310 310 310 309 308 308 308 308 308 308 308 308 309 309 310 310 311 311 310 309 308 307 306 304 302 301 300 299 298 298
280 280 281 282 284 285 288 290 292 294 296 297 298 298 299 299 300 300 300 301 302 303 304 305 305 306 306 306 307 307 307 307 307 307 306 306 306 305 305 305 305 305 306 306 307 308 308 309 309 310 310 311 311 311 311 311 311 310 310 309 309 310 310 310 310 310 311 311 311 312 312 312 311 310 309 307 306 305 303 302 301 300 300 300 299
278 280 282 284 286 289 291 293 294 296 297 297 297 298 298 299 299 300 301 302 303 304 305 306 306 307 307 308 308 308 308 308 308 307 307 307 306 306 305 305 306 306 306 307 307 308 309 309 309 310 311 311 312 312 312 312 311 311 311 311 311 312 312 312 312 312 312 313 313 313 313 312 311 309 307 306 305 304 303 302 302 301 301 301 300
279 282 284 286 289 291 292 293 295 296 296 296 296 297 298 299 300 301 302 304 305 305 306 306 307 307 308 308 308 308 308 308 308 308 307 307 306 306 306 306 306 306 307 307 308 308 309 309 310 310 311 312 312 312 312 312 312 312 312 312 313 313 313 314 314 314 314 314 314 313 313 312 310 308 306 305 305 304 303 302 302 302 302 302 302
281 283 285 287 289 290 291 293 294 295 295 295 297 298 299 300 301 302 303 304 305 305 305 305 306 307 307 307 307 308 308 308 308 308 307 307 306 306 306 306 307 307 307 308 308 309 309 309 310 310 311 312 312 312 312 312 312 312 313 313 313 313 314 314 315 315 315 315 314 314 312 310 308 307 306 305 304 303 303 302 302 301 301 301 301
283 284 286 287 288 289 291 293 294 294 294 296 297 298 299 301 302 302 303 303 303 303 304 304 305 306 306 306 306 307 307 308 308 308 307 307 306 306 306 307 307 307 307 308 308 309 309 309 310 311 312 312 312 312 312 312 313 313 313 313 313 314 314 315 315 315 315 314 314 313 311 308 307 307 306 305 304 303 303 302 302 301 300 300 300
284 285 285 286 287 290 293 295 294 294 295 297 298 298 300 300 301 302 302 302 302 302 303 304 304 305 305 305 306 306 307 308 308 308 307 306 306 306 306 307 307 307 307 308 308 309 309 310 310 311 312 313 313 313 313 313 313 313 313 313 314 314 315 315 315 315 314 314 313 311 309 307 307 307 306 305 304 304 303 303 303 302 301 300 300
284 285 285 286 289 293 295 295 294 294 295 296 297 298 299 299 300 300 301 301 301 302 302 303 304 304 304 305 305 306 307 308 308 307 306 306 306 306 306 307 307 307 308 308 309 309 310 311 312 312 313 313 313 313 313 313 314 314 314 314 315 315 315 315 315 314 314 313 311 309 308 307 307 306 306 305 305 304 303 303 303 302 301 301 300
285 285 286 288 292 295 295 294 293 294 295 295 296 297 297 298 299 299 300 300 301 301 302 303 304 304 305 305 306 306 307 308 308 307 306 305 306 306 306 306 306 307 308 308 309 310 311 312 312 313 313 314 314 314 314 314 314 314 315 315 315 315 315 315 314 314 313 311 309 308 307 307 306 306 306 305 305 304 303 303 303 301 301 300 300
286 286 287 291 294 295 294 293 292 293 293 294 295 296 297 297 298 299 299 300 300 301 302 303 304 304 305 305 306 307 308 308 307 306 305 305 306 306 306 306 306 307 308 309 310 311 312 313 313 314 314 314 314 314 314 315 315 315 316 316 316 316 315 315 314 313 312 310 308 307 306 306 305 305 305 304 303 303 302 302 301 300 300 299 299
285 286 289 292 293 293 292 292 292 292 293 294 295 296 297 297 298 298 299 299 300 301 302 303 304 304 305 305 306 307 308 307 306 305 305 305 305 306 305 306 306 307 308 309 310 312 312 313 314 314 314 314 314 315 315 316 316 316 317 316 316 316 315 315 314 313 311 309 308 307 306 305 305 305 304 303 303 302 301 301 300 299 298 298 297
285 288 290 291 292 292 292 292 292 293 294 295 295 296 296 296 297 297 298 299 300 301 302 303 304 304 304 305 306 307 307 306 304 304 305 305 305 305 305 306 307 308 309 310 311 312 313 313 314 314 314 315 315 316 317 317 317 317 317 317 317 316 315 314 314 312 310 309 308 307 307 306 306 305 305 304 303 302 301 300 299 298 297 296 295
287 289 290 291 292 292 292 292 293 294 294 295 295 295 296 296 296 297 298 299 300 301 302 303 303 304 304 305 306 306 305 304 304 304 305 305 305 305 306 307 307 308 310 311 312 313 313 314 314 315 315 316 317 317 318 318 318 318 318 317 317 316 315 314 313 312 310 309 308 308 307 306 306 305 305 304 303 301 300 299 297 296 294 294 293
288 289 290 290 291 292 292 292 293 294 294 294 295 295 295 296 296 297 298 299 300 302 303 303 303 303 304 305 306 305 304 303 304 304 305 305 306 306 307 308 309 310 311 312 313 314 314 315 315 316 316 317 318 318 318 318 318 318 318 317 316 315 314 313 312 311 310 309 308 307 307 306 306 305 304 303 302 301 300 298 296 294 292 291 290
287 288 289 290 290 291 291 292 292 293 294 294 295 296 296 296 297 297 298 299 301 302 303 302 303 303 304 305 305 304 303 303 304 304 305 306 306 307 308 309 311 312 313 314 315 315 315 316 316 317 317 318 318 319 319 319 319 318 317 317 316 314 313 312 311 311 310 309 309 308 307 307 306 306 305 304 303 302 300 297 295 293 291 289 287
286 287 288 289 290 291 291 292 293 294 295 296 297 297 297 297 297 297 298 300 301 302 302 302 302 303 304 305 304 303 303 304 304 305 305 306 307 308 310 311 312 313 314 315 316 316 316 317 317 318 318 319 319 319 319 319 319 318 317 316 315 314 313 313 312 312 311 310 310 309 308 308 307 307 306 305 304 302 300 298 295 293 291 288 287
287 288 289 290 291 292 293 293 294 295 296 297 298 298 298 297 297 298 299 300 301 301 301 302 302 304 304 304 303 303 303 304 305 305 306 307 308 309 311 312 313 314 315 317 317 317 318 318 318 319 319 320 320 320 319 319 319 318 317 317 316 315 314 314 313 313 312 311 311 310 309 309 308 308 307 306 304 302 300 298 296 294 292 290 288
289 290 290 291 292 293 293 294 294 296 297 298 298 298 297 297 297 298 299 300 300 300 301 302 303 304 304 303 303 303 304 305 305 306 307 308 309 311 312 313 314 315 316 318 318 318 318 318 319 319 320 320 320 320 320 320 319 319 318 317 317 316 315 315 315 314 313 313 312 311 311 310 309 309 307 306 305 303 301 299 297 295 293 291 289
290 290 290 291 291 292 292 293 294 296 296 297 297 297 297 297 298 298 299 299 300 301 302 303 304 304 303 303 303 304 304 305 306 307 308 309 311 312 313 314 315 316 317 317 317 317 317 318 319 320 320 320 321 321 321 320 320 319 319 318 317 317 317 316 316 315 315 314 314 313 312 311 311 309 308 307 305 303 301 300 298 296 294 293 291
289 289 289 289 290 291 292 293 295 296 296 298 299 299 298 297 297 298 299 300 302 303 304 304 304 304 303 303 304 304 305 305 306 307 309 310 312 313 313 314 315 316 317 317 317 317 318 319 320 321 321 322 322 322 321 321 320 319 319 318 318 318 318 317 317 317 316 315 315 314 313 313 312 310 309 308 306 304 302 300 298 297 295 294 293
288 288 288 289 290 291 293 294 296 297 299 300 300 298 297 297 298 300 301 302 303 304 304 304 304 304 304 304 304 304 305 305 307 308 310 312 312 313 314 314 316 317 317 317 317 318 319 320 321 322 322 322 322 322 321 321 320 319 319 319 319 319 319 318 318 318 317 317 316 315 314 313 312 311 310 309 307 305 302 300 299 298 297 295 294
287 287 288 289 291 293 295 296 298 299 300 300 299 298 298 299 301 302 303 304 304 304 304 304 304 304 304 304 304 304 305 306 308 310 311 312 313 314 315 315 316 317 318 318 319 320 321 322 323 323 323 323 323 322 322 321 320 320 320 320 320 320 320 319 319 319 318 318 317 316 315 314 313 313 312 310 308 306 303 301 300 299 298 297 296
288 289 290 292 293 295 297 298 299 300 300 299 299 300 301 302 303 303 304 304 304 304 304 304 303 303 303 303 304 304 305 307 309 310 311 312 313 314 315 316 317 318 318 319 320 321 322 323 323 323 323 323 323 323 322 321 321 321 321 321 321 321 321 320 320 320 320 319 319 318 316 315 315 314 313 311 309 307 304 302 301 300 299 298 297
289 290 292 294 295 297 298 299 300 300 300 301 302 302 303 304 304 303 303 304 304 304 304 303 303 303 303 303 303 304 306 308 309 310 311 313 314 315 316 317 318 319 319 320 321 323 323 324 324 324 324 324 324 323 322 322 321 321 322 322 322 322 322 322 322 322 321 321 320 319 318 317 316 315 314 312 310 308 305 303 302 301 300 300 298
290 292 294 295 296 297 298 299 300 300 301 302 303 303 304 304 303 303 303 303 303 303 303 303 303 303 303 303 304 305 307 308 310 311 312 313 315 316 317 318 319 319 320 321 323 323 324 324 324 325 325 324 324 323 322 322 322 323 323 323 324 324 323 323 324 324 323 322 321 320 319 318 317 316 314 313 312 310 307 305 304 303 302 300 298
292 294 294 295 296 298 299 299 300 300 302 303 303 303 303 303 303 303 303 303 303 303 303 303 304 304 304 304 305 306 308 309 310 311 313 314 316 317 318 319 319 320 321 323 323 324 324 325 325 325 325 324 323 323 322 323 323 324 324 325 325 325 325 325 325 325 324 323 322 321 320 319 317 316 316 315 313 311 309 308 307 305 302 300 298
293 293 294 296 297 298 298 299 300 302 303 302 302 302 302 302 302 303 303 303 304 304 304 304 304 304 304 304 306 307 308 310 311 312 314 315 317 318 319 319 320 321 323 324 324 325 325 325 325 325 325 324 323 323 323 324 325 326 326 326 326 326 326 327 327 327 326 324 323 322 321 319 317 317 317 317 315 313 311 310 309 306 304 302 299
293 294 296 297 297 298 299 300 301 302 302 301 302 302 302 303 304 304 304 304 304 304 304 304 303 303 304 305 306 308 309 310 312 313 315 317 318 319 320 320 321 323 324 324 325 325 325 325 325 325 325 324 324 324 325 326 327 327 327 327 327 327 328 329 328 328 327 325 324 323 322 320 318 318 320 319 317 315 313 312 310 307 305 303 301
294 296 297 297 297 299 300 300 301 301 301 302 302 303 304 304 305 305 304 304 304 304 303 303 303 304 305 306 307 309 310 311 313 314 316 318 319 320 320 321 322 323 324 324 325 325 325 325 325 325 325 324 324 325 326 327 328 328 328 328 328 329 330 330 329 329 328 326 325 324 323 321 320 321 322 321 318 316 315 314 312 309 307 306 304
297 297 297 297 298 299 300 300 300 300 301 302 302 303 304 305 305 305 305 304 304 303 303 304 304 305 306 307 308 309 310 312 314 315 317 318 319 320 321 322 323 324 324 325 325 325 325 325 325 325 325 325 325 326 328 329 329 330 330 330 330 331 332 331 330 329 329 327 326 325 324 322 322 324 325 323 320 317 315 314 313 311 309 308 307
297 297 297 298 299 299 298 298 299 300 301 302 303 304 305 305 305 305 305 304 304 304 304 304 305 306 307 308 308 310 311 313 315 316 318 319 320 321 322 323 324 324 325 325 325 325 325 326 326 325 325 325 326 328 329 330 331 331 331 331 332 333 333 332 331 330 329 328 327 326 325 325 326 327 327 325 321 318 316 314 313 311 309 307 307
296 296 297 297 297 297 297 297 299 300 302 303 304 305 305 305 305 305 305 304 304 304 304 304 305 307 307 307 309 310 312 314 315 317 318 319 320 321 322 323 324 324 325 325 325 326 326 326 326 325 325 326 327 329 330 331 332 332 332 333 334 334 334 332 331 331 330 329 328 327 327 327 329 329 328 326 323 320 318 315 313 311 309 308 308
295 296 296 295 295 295 296 298 300 301 303 304 305 305 304 304 304 304 304 304 304 304 304 304 305 306 306 307 309 311 312 314 315 317 318 319 320 321 322 323 324 324 324 325 326 326 326 326 326 325 326 327 328 330 331 332 333 334 334 335 336 336 335 333 332 331 331 330 329 329 329 330 331 331 328 325 323 321 320 318 314 312 311 310 309
295 295 294 294 294 296 298 300 301 303 304 304 304 304 303 303 303 303 303 303 303 303 304 304 305 305 306 307 309 311 313 314 316 317 318 319 320 321 322 323 323 324 325 325 326 326 326 326 325 325 326 327 329 331 332 333 334 335 335 336 337 337 336 334 333 332 331 331 330 330 332 333 333 331 328 324 322 321 320 318 315 313 312 311 311
295 293 293 294 296 298 300 301 303 304 304 304 303 303 303 303 303 303 303 303 303 303 303 304 304 305 306 308 310 311 313 314 316 317 318 320 320 321 322 323 324 324 325 325 326 326 326 326 325 325 326 328 330 332 333 334 335 336 337 338 339 338 337 335 333 332 332 331 330 331 334 335 334 332 328 325 322 320 319 318 316 314 314 313 312
292 292 293 295 297 299 300 302 303 303 304 304 304 304 303 303 303 303 304 303 303 302 303 304 304 305 307 309 310 312 313 315 316 317 319 320 320 321 322 323 324 324 325 326 326 326 326 326 326 326 327 329 331 333 334 335 336 337 338 339 340 340 338 336 334 333 332 331 331 332 334 335 335 333 329 326 323 321 320 318 316 314 315 314 313
291 293 295 296 298 299 300 301 302 303 304 304 304 303 303 304 304 304 304 303 302 303 303 304 304 306 307 309 311 312 314 315 316 318 319 320 321 321 322 323 324 324 325 326 326 327 326 326 326 326 328 330 332 334 335 336 338 339 339 341 341 341 339 337 335 333 332 331 330 331 333 334 334 333 330 327 324 322 321 318 316 315 314 314 314
292 294 295 296 298 299 300 301 302 303 303 303 303 303 304 305 304 304 303 303 303 303 304 304 304 306 308 309 311 313 314 315 317 318 319 320 321 321 322 323 324 325 325 326 326 327 326 326 326 327 328 331 333 334 336 337 339 340 341 342 342 342 341 339 336 333 332 331 331 331 332 332 332 332 330 328 325 323 321 318 315 314 313 313 313
293 294 295 297 299 300 300 301 301 302 302 302 303 304 304 304 304 304 303 303 304 304 303 303 304 306 308 310 312 313 315 316 317 318 319 320 321 321 322 323 324 324 325 326 326 327 326 326 326 327 329 331 333 335 336 338 340 341 342 343 344 343 342 340 337 334 332 331 330 330 330 331 331 330 329 328 326 323 320 317 315 314 313 312 312
293 295 297 299 300 300 300 300 300 300 301 301 302 303 304 304 304 304 304 304 304 303 303 303 304 306 308 310 312 314 315 316 317 318 319 320 320 321 322 323 323 324 325 326 326 327 326 326 326 327 329 332 334 335 337 339 340 342 343 344 345 344 343 341 338 335 332 330 329 329 330 331 331 330 328 326 325 322 319 317 315 314 313 312 312
296 298 299 300 300 299 299 299 299 299 300 301 302 303 304 305 305 305 304 304 304 303 303 304 305 307 309 311 313 314 315 316 317 318 319 319 320 321 322 322 323 324 325 326 327 327 326 326 326 327 330 332 334 336 337 339 341 342 344 345 346 345 344 341 339 336 332 330 329 329 329 329 329 329 327 324 322 320 318 316 314 313 313 312 312
298 299 299 299 299 298 298 298 298 299 299 300 301 303 304 305 305 305 304 304 304 303 303 304 306 307 309 311 313 314 315 316 317 318 318 319 320 321 321 322 323 324 325 326 326 326 326 325 326 328 330 332 335 336 338 340 342 343 344 345 347 347 345 342 339 337 334 331 330 329 329 329 328 328 326 323 320 318 316 315 313 312 312 312 311
298 298 298 297 297 297 297 298 298 298 298 299 301 303 304 305 305 304 304 304 304 303 303 304 306 308 310 312 313 314 315 316 317 317 318 319 320 320 321 322 323 324 325 326 326 326 325 325 326 328 330 332 334 336 338 340 342 344 345 346 347 348 346 343 340 336 334 332 330 329 328 327 327 326 324 322 319 316 314 313 312 310 310 311 310
Height
5741 5741 5740 5740 5739 5739 5738 5738 5737 5736 5735 5734 5732 5731 5729 5728 5726 5724 5723 5721 5719 5717 5715 5713 5711 5709 5707 5705 5703 5700 5698 5695 5692 5689 5686 5683 5679 5675 5672 5668 5663 5659 5655 5652 5648 5644 5640 5636 5632 5628 5623 5618 5614 5608 5603 5599 5593 5588 5582 5576 5571 5565 5560 5556 5552 5553 5557 5549 5539 5539 5534 5521 5516 5514 5503 5493 5490 5487 5484 5483 5478 5472 5468 5465 5458
5736 5736 5735 5735 5734 5733 5732 5732 5731 5729 5728 5727 5726 5724 5723 5721 5720 5718 5716 5714 5712 5710 5708 5706 5705 5703 5701 5699 5696 5694 5691 5688 5685 5682 5678 5675 5671 5667 5663 5659 5654 5651 5647 5643 5639 5635 5631 5627 5622 5618 5613 5607 5602 5597 5592 5587 5582 5577 5571 5564 5559 5554 5546 5541 5537 5535 5537 5537 5528 5522 5520 5511 5502 5499 5492 5482 5475 5469 5464 5462 5457 5451 5448 5445 5438
5731 5730 5730 5729 5728 5728 5727 5726 5725 5723 5722 5721 5720 5718 5716 5715 5713 5711 5709 5708 5706 5704 5703 5701 5699 5697 5695 5692 5690 5687 5684 5681 5677 5674 5670 5666 5662 5658 5654 5650 5646 5642 5638 5634 5630 5625 5621 5616 5611 5607 5602 5597 5591 5586 5580 5575 5570 5564 5559 5553 5546 5542 5535 5527 5521 5518 5516 5518 5515 5507 5503 5498 5489 5482 5476 5469 5461 5453 5447 5443 5436 5428 5424 5422 5416
5725 5725 5724 5724 5723 5722 5721 5720 5719 5718 5717 5715 5714 5712 5710 5708 5707 5705 5704 5702 5701 5699 5697 5695 5693 5691 5688 5685 5682 5679 5676 5673 5670 5666 5663 5658 5654 5650 5645 5641 5637 5633 5629 5624 5620 5615 5610 5605 5601 5596 5591 5586 5580 5575 5569 5563 5559 5553 5547 5542 5535 5529 5523 5515 5508 5502 5498 5498 5498 5493 5486 5481 5475 5467 5459 5453 5447 5438 5428 5423 5418 5408 5401 5399 5392
5720 5719 5719 5718 5718 5717 5716 5715 5714 5712 5711 5709 5708 5706 5705 5704 5702 5701 5700 5698 5696 5694 5691 5689 5686 5683 5680 5677 5674 5671 5668 5665 5661 5658 5654 5650 5646 5641 5637 5632 5628 5623 5619 5614 5609 5605 5600 5595 5590 5584 5579 5575 5568 5563 5558 5552 5547 5542 5536 5530 5524 5517 5511 5503 5495 5488 5483 5479 5478 5475 5469 5462 5457 5450 5440 5431 5427 5422 5411 5403 5398 5387 5379 5378 5372
5715 5714 5714 5713 5712 5711 5710 5709 5708 5707 5705 5704 5703 5702 5701 5699 5698 5696 5694 5692 5689 5686 5683 5681 5678 5675 5672 5669 5666 5663 5660 5657 5654 5650 5646 5642 5637 5632 5628 5623 5619 5614 5609 5604 5599 5594 5589 5583 5578 5573 5567 5562 5557 5551 5546 5541 5535 5530 5524 5517 5511 5504 5498 5491 5482 5475 5469 5463 5458 5454 5450 5445 5437 5431 5423 5411 5404 5400 5390 5383 5380 5370 5359 5358 5356
5710 5709 5709 5708 5707 5706 5705 5704 5703 5702 5701 5699 5698 5697 5695 5694 5692 5689 5687 5684 5681 5679 5676 5673 5671 5668 5665 5662 5659 5656 5653 5649 5646 5642 5638 5634 5629 5623 5618 5613 5609 5604 5599 5594 5589 5583 5578 5572 5566 5561 5556 5550 5545 5540 5534 5529 5524 5517 5511 5504 5498 5491 5484 5477 5470 5461 5454 5448 5442 5435 5430 5425 5417 5409 5403 5394 5385 5378 5367 5358 5358 5356 5347 5343 5340
5705 5704 5703 5702 5701 5701 5700 5699 5698 5697 5695 5694 5692 5691 5689 5686 5684 5682 5679 5677 5674 5672 5669 5666 5663 5661 5658 5655 5652 5648 5645 5641 5638 5634 5630 5625 5620 5614 5609 5604 5599 5594 5589 5583 5578 5573 5567 5562 5555 5549 5544 5538 5533 5527 5521 5516 5511 5505 5498 5491 5484 5478 5470 5463 5455 5447 5439 5432 5426 5419 5411 5406 5397 5387 5380 5374 5367 5361 5351 5340 5336 5336 5333 5333 5330
5699 5699 5698 5697 5696 5695 5694 5693 5692 5691 5690 5688 5686 5684 5682 5680 5678 5675 5673 5671 5668 5665 5662 5659 5657 5654 5650 5647 5644 5640 5637 5633 5629 5625 5621 5616 5611 5605 5599 5594 5589 5584 5579 5573 5568 5562 5556 5551 5545 5539 5533 5527 5521 5514 5508 5503 5497 5492 5485 5478 5470 5463 5456 5448 5440 5431 5424 5417 5411 5403 5394 5387 5378 5366 5359 5354 5348 5342 5337 5328 5322 5319 5316 5319 5322
5695 5694 5693 5692 5691 5690 5689 5688 5687 5685 5683 5681 5679 5677 5676 5674 5672 5669 5667 5664 5662 5659 5656 5653 5649 5646 5643 5639 5636 5632 5628 5624 5620 5616 5611 5606 5602 5596 5589 5584 5579 5574 5569 5563 5557 5552 5546 5540 5535 5529 5523 5516 5510 5503 5496 5490 5483 5477 5470 5463 5456 5448 5440 5433 5425 5415 5407 5401 5395 5386 5376 5370 5362 5350 5340 5336 5333 5327 5322 5315 5310 5307 5303 5302 5309
5690 5690 5688 5687 5686 5685 5684 5682 5681 5679 5677 5675 5674 5672 5670 5668 5665 5663 5661 5658 5655 5652 5649 5646 5642 5638 5635 5631 5627 5624 5619 5615 5611 5606 5601 5596 5591 5586 5580 5574 5569 5564 5559 5554 5548 5542 5536 5531 5525 5519 5513 5507 5500 5494 5487 5479 5472 5465 5457 5449 5441 5433 5424 5416 5408 5400 5392 5385 5379 5371 5360 5352 5347 5337 5326 5321 5319 5315 5310 5304 5297 5294 5292 5288 5291
5686 5685 5683 5682 5681 5679 5678 5677 5675 5674 5672 5670 5668 5666 5664 5661 5659 5657 5654 5651 5648 5645 5642 5638 5634 5630 5627 5623 5619 5615 5611 5606 5602 5597 5592 5587 5581 5576 5570 5565 5559 5554 5548 5543 5538 5531 5526 5520 5515 5508 5503 5497 5490 5484 5478 5471 5463 5455 5447 5439 5431 5422 5412 5402 5393 5384 5376 5368 5362 5355 5346 5336 5331 5325 5316 5308 5307 5304 5298 5294 5287 5281 5280 5278 5275
5681 5680 5678 5677 5676 5674 5673 5672 5671 5669 5666 5664 5662 5660 5657 5655 5652 5650 5647 5644 5641 5638 5634 5631 5627 5622 5618 5614 5610 5607 5602 5597 5592 5587 5582 5577 5571 5565 5560 5555 5549 5544 5539 5533 5527 5521 5516 5510 5504 5498 5492 5486 5479 5473 5467 5461 5454 5447 5438 5429 5421 5412 5402 5393 5382 5372 5363 5353 5344 5339 5332 5322 5316 5312 5306 5297 5293 5291 5287 5283 5279 5271 5268 5268 5264
5676 5675 5673 5672 5671 5670 5669 5667 5665 5662 5660 5658 5656 5654 5651 5648 5646 5643 5640 5637 5634 5630 5627 5623 5619 5615 5610 5606 5601 5597 5593 5588 5582 5578 5572 5567 5562 5556 5550 5545 5540 5534 5529 5523 5517 5512 5506 5500 5494 5488 5481 5474 5467 5461 5456 5450 5443 5436 5428 5419 5410 5402 5392 5383 5373 5364 5354 5343 5333 5326 5319 5311 5304 5300 5295 5288 5281 5277 5273 5270 5268 5262 5258 5258 5255
5671 5670 5668 5666 5665 5665 5664 5662 5659 5656 5654 5652 5649 5647 5644 5642 5639 5636 5633 5629 5626 5622 5619 5615 5611 5607 5602 5597 5592 5588 5583 5578 5572 5567 5563 5557 5552 5547 5541 5536 5530 5525 5519 5514 5508 5502 5496 5490 5484 5477 5471 5464 5456 5449 5443 5437 5431 5425 5417 5409 5400 5391 5381 5372 5362 5353 5344 5334 5324 5316 5308 5302 5295 5289 5284 5277 5270 5265 5260 5255 5253 5248 5244 5245 5245
5666 5664 5662 5661 5660 5660 5658 5655 5652 5650 5648 5646 5643 5640 5638 5635 5632 5628 5625 5621 5618 5614 5610 5606 5602 5598 5594 5589 5583 5578 5573 5568 5562 5557 5553 5548 5543 5538 5532 5527 5521 5516 5510 5505 5499 5492 5486 5479 5473 5467 5461 5453 5446 5438 5430 5424 5418 5413 5405 5398 5389 5380 5370 5361 5352 5342 5333 5324 5315 5306 5299 5293 5287 5280 5274 5267 5259 5253 5247 5244 5240 5233 5228 5229 5231
5661 5658 5656 5656 5655 5654 5652 5649 5646 5643 5641 5639 5636 5634 5631 5627 5624 5621 5617 5613 5609 5606 5602 5598 5594 5589 5585 5580 5574 5568 5563 5558 5552 5547 5542 5539 5534 5529 5523 5518 5512 5507 5502 5496 5489 5483 5476 5469 5462 5456 5450 5443 5436 5428 5419 5411 5405 5399 5392 5384 5376 5368 5358 5349 5341 5333 5324 5315 5306 5298 5291 5285 5279 5273 5266 5258 5251 5242 5234 5231 5229 5222 5215 5213 5214
5654 5652 5651 5651 5650 5648 5645 5642 5639 5637 5635 5632 5630 5627 5623 5620 5617 5613 5609 5605 5601 5597 5594 5590 5585 5581 5576 5571 5565 5559 5553 5547 5542 5537 5532 5529 5525 5520 5515 5509 5504 5499 5493 5487 5480 5474 5467 5460 5452 5445 5439 5433 5425 5417 5408 5398 5391 5385 5377 5370 5363 5355 5345 5336 5328 5321 5314 5306 5298 5291 5284 5278 5271 5265 5260 5252 5245 5236 5226 5220 5216 5210 5204 5201 5198
5647 5646 5646 5645 5644 5641 5639 5636 5632 5630 5627 5625 5622 5619 5615 5612 5609 5605 5601 5597 5593 5589 5585 5581 5576 5572 5567 5562 5556 5550 5543 5538 5532 5528 5523 5518 5515 5511 5506 5500 5495 5490 5485 5478 5472 5465 5458 5451 5444 5436 5429 5422 5414 5406 5396 5386 5377 5371 5363 5355 5348 5340 5332 5323 5315 5308 5301 5295 5288 5282 5275 5269 5262 5256 5251 5244 5237 5229 5220 5211 5205 5199 5193 5190 5186
5641 5641 5641 5639 5637 5635 5632 5628 5625 5622 5620 5617 5614 5611 5608 5604 5600 5596 5592 5589 5585 5581 5576 5571 5567 5562 5557 5552 5547 5541 5535 5528 5523 5518 5514 5509 5505 5501 5496 5491 5486 5481 5476 5469 5463 5457 5450 5442 5435 5428 5420 5412 5403 5393 5385 5375 5365 5357 5349 5339 5330 5323 5316 5310 5303 5295 5287 5282 5276 5270 5264 5258 5252 5245 5239 5233 5226 5219 5211 5203 5195 5187 5180 5177 5175
5637 5636 5634 5632 5630 5628 5624 5621 5617 5615 5613 5610 5606 5603 5599 5596 5592 5588 5583 5580 5576 5572 5567 5562 5557 5552 5548 5543 5537 5532 5526 5520 5514 5509 5505 5500 5495 5491 5486 5481 5476 5471 5466 5460 5454 5447 5440 5433 5426 5419 5410 5401 5392 5383 5374 5365 5355 5345 5336 5325 5315 5306 5298 5293 5289 5282 5275 5269 5263 5258 5252 5246 5240 5234 5227 5220 5213 5206 5200 5192 5184 5176 5169 5163 5160
5631 5629 5627 5625 5623 5620 5617 5613 5610 5607 5605 5601 5598 5595 5591 5587 5583 5579 5574 5571 5567 5563 5558 5553 5548 5542 5538 5533 5528 5522 5517 5512 5506 5501 5496 5491 5486 5482 5477 5472 5466 5461 5456 5450 5444 5437 5430 5423 5416 5409 5400 5391 5382 5373 5364 5355 5346 5335 5325 5315 5305 5295 5286 5280 5275 5270 5265 5258 5251 5246 5240 5233 5227 5222 5215 5207 5200 5192 5185 5178 5171 5163 5157 5150 5145
5625 5622 5620 5618 5615 5612 5609 5605 5602 5599 5596 5592 5589 5586 5582 5578 5574 5570 5566 5562 5559 5554 5550 5544 5539 5534 5529 5523 5518 5513 5508 5504 5499 5493 5488 5483 5478 5473 5468 5463 5456 5451 5446 5440 5434 5427 5419 5412 5405 5398 5390 5381 5373 5363 5354 5344 5335 5326 5316 5306 5297 5288 5279 5272 5265 5259 5253 5246 5239 5233 5227 5220 5212 5206 5200 5192 5185 5176 5167 5160 5154 5147 5141 5137 5131
5617 5615 5613 5610 5607 5604 5601 5597 5593 5590 5587 5583 5581 5577 5573 5569 5565 5561 5557 5554 5550 5546 5541 5536 5531 5526 5520 5514 5509 5504 5500 5495 5491 5485 5480 5476 5470 5466 5460 5454 5447 5441 5436 5430 5424 5416 5408 5402 5394 5387 5379 5371 5362 5353 5343 5334 5324 5315 5306 5297 5288 5279 5270 5262 5255 5248 5241 5234 5227 5220 5213 5205 5197 5189 5182 5174 5166 5158 5149 5140 5135 5129 5124 5120 5118
5610 5607 5604 5601 5598 5595 5592 5588 5585 5581 5578 5575 5572 5569 5565 5561 5557 5553 5549 5545 5541 5537 5532 5528 5523 5517 5512 5505 5499 5495 5491 5487 5482 5477 5473 5468 5463 5457 5452 5445 5439 5433 5427 5421 5413 5405 5398 5392 5384 5376 5369 5361 5352 5344 5335 5325 5315 5305 5295 5286 5277 5269 5260 5252 5244 5236 5229 5222 5214 5206 5198 5190 5182 5173 5164 5155 5147 5138 5130 5123 5118 5114 5108 5105 5105
5602 5599 5596 5593 5590 5587 5584 5580 5576 5573 5570 5567 5564 5560 5557 5553 5549 5545 5541 5537 5532 5528 5523 5519 5514 5509 5503 5498 5492 5486 5482 5478 5474 5469 5465 5460 5455 5449 5443 5437 5430 5424 5418 5413 5405 5397 5389 5382 5375 5367 5359 5351 5342 5333 5324 5315 5305 5294 5284 5274 5266 5257 5248 5240 5232 5224 5216 5209 5200 5192 5183 5174 5165 5156 5146 5137 5129 5121 5113 5108 5105 5100 5095 5093 5093
5593 5591 5587 5584 5581 5578 5575 5572 5568 5565 5562 5559 5556 5552 5549 5545 5541 5537 5532 5528 5523 5519 5514 5509 5505 5500 5495 5490 5484 5479 5474 5469 5465 5461 5456 5451 5446 5441 5434 5428 5422 5416 5411 5405 5398 5391 5383 5375 5366 5358 5350 5341 5331 5321 5311 5301 5292 5282 5272 5263 5254 5246 5237 5228 5219 5210 5203 5194 5185 5176 5166 5156 5147 5138 5129 5121 5114 5107 5100 5095 5092 5089 5085 5082 5083
5585 5582 5579 5576 5573 5570 5567 5564 5561 5557 5554 5551 5548 5544 5540 5536 5532 5528 5524 5519 5515 5510 5505 5500 5496 5491 5487 5482 5477 5471 5466 5461 5457 5452 5448 5442 5437 5432 5426 5419 5414 5408 5403 5397 5390 5383 5375 5366 5357 5348 5339 5330 5321 5310 5300 5290 5281 5272 5263 5255 5246 5237 5227 5218 5209 5199 5189 5180 5170 5160 5149 5139 5129 5120 5113 5107 5101 5095 5088 5083 5080 5078 5076 5073 5074
5575 5573 5570 5568 5565 5562 5559 5556 5552 5549 5546 5542 5539 5535 5531 5526 5523 5519 5515 5510 5506 5501 5496 5492 5488 5483 5478 5473 5468 5464 5459 5453 5448 5444 5439 5433 5428 5423 5417 5411 5405 5400 5393 5386 5379 5371 5363 5355 5346 5337 5328 5320 5311 5301 5291 5282 5273 5264 5255 5246 5237 5228 5218 5208 5199 5189 5178 5167 5157 5145 5134 5124 5115 5107 5101 5095 5090 5084 5078 5074 5071 5069 5068 5066 5066
5566 5564 5562 5559 5556 5553 5550 5547 5544 5540 5537 5533 5530 5526 5522 5518 5514 5510 5505 5501 5497 5492 5487 5483 5479 5475 5470 5465 5460 5455 5451 5446 5441 5436 5430 5425 5420 5414 5408 5401 5396 5390 5383 5375 5367 5359 5352 5343 5335 5326 5318 5309 5300 5291 5281 5272 5263 5255 5246 5237 5227 5218 5209 5198 5188 5178 5167 5155 5143 5131 5120 5111 5104 5097 5090 5086 5081 5075 5070 5067 5064 5062 5061 5060 5060
5557 5555 5553 5550 5547 5544 5541 5538 5535 5532 5528 5524 5521 5517 5513 5509 5505 5501 5496 5492 5488 5483 5479 5475 5470 5466 5462 5458 5453 5447 5442 5438 5433 5428 5423 5418 5412 5406 5399 5393 5387 5381 5374 5366 5358 5349 5341 5334 5325 5316 5308 5298 5289 5280 5270 5261 5253 5245 5237 5229 5218 5208 5199 5189 5178 5166 5155 5143 5130 5119 5109 5100 5094 5088 5082 5078 5074 5069 5065 5061 5059 5057 5056 5055 5055
5549 5546 5544 5541 5538 5536 5533 5529 5526 5523 5519 5515 5512 5508 5504 5500 5496 5492 5488 5484 5479 5475 5471 5467 5462 5458 5454 5450 5446 5441 5435 5430 5425 5420 5415 5410 5404 5397 5391 5384 5378 5372 5364 5356 5348 5340 5332 5324 5316 5307 5298 5288 5279 5269 5260 5252 5244 5235 5227 5218 5209 5199 5188 5178 5167 5155 5142 5130 5119 5108 5099 5092 5086 5081 5075 5071 5067 5064 5060 5057 5055 5054 5053 5051 5051
5540 5538 5535 5533 5530 5527 5524 5521 5518 5514 5510 5507 5503 5500 5496 5492 5487 5483 5479 5475 5471 5467 5463 5459 5454 5450 5446 5442 5438 5433 5428 5423 5418 5412 5407 5402 5396 5389 5383 5375 5369 5363 5356 5347 5339 5331 5323 5316 5307 5298 5289 5279 5270 5261 5252 5243 5235 5226 5216 5207 5198 5188 5178 5167 5156 5144 5131 5118 5108 5099 5092 5085 5079 5075 5070 5066 5062 5059 5056 5054 5053 5051 5050 5050 5049
5532 5530 5527 5524 5522 5519 5516 5513 5509 5505 5502 5499 5495 5491 5487 5483 5479 5474 5470 5466 5462 5458 5455 5451 5447 5442 5438 5434 5429 5424 5419 5415 5410 5405 5399 5394 5388 5381 5374 5367 5360 5353 5346 5338 5330 5322 5314 5306 5297 5289 5280 5271 5262 5253 5245 5236 5227 5217 5207 5197 5187 5177 5167 5156 5144 5133 5121 5109 5100 5092 5085 5079 5074 5070 5066 5062 5059 5056 5053 5052 5051 5049 5048 5048 5048
5524 5522 5519 5516 5513 5510 5507 5503 5500 5497 5494 5490 5486 5483 5479 5474 5470 5466 5462 5458 5454 5450 5447 5443 5439 5435 5431 5426 5421 5416 5411 5407 5402 5397 5391 5386 5380 5373 5366 5359 5352 5344 5336 5328 5320 5312 5304 5296 5288 5280 5271 5263 5254 5246 5237 5229 5219 5209 5198 5188 5177 5167 5157 5146 5134 5123 5112 5102 5093 5086 5080 5074 5069 5065 5062 5059 5056 5054 5052 5050 5049 5048 5047 5047 5047
5516 5514 5511 5507 5504 5501 5498 5494 5491 5488 5485 5482 5478 5474 5470 5466 5462 5458 5454 5450 5446 5442 5439 5435 5432 5428 5423 5418 5412 5408 5404 5399 5394 5389 5383 5377 5371 5365 5358 5351 5344 5336 5328 5320 5312 5304 5296 5288 5280 5272 5264 5255 5247 5238 5230 5221 5211 5201 5190 5180 5169 5158 5147 5136 5124 5114 5104 5095 5088 5081 5075 5070 5066 5062 5060 5057 5054 5052 5051 5049 5048 5047 5046 5046 5046
5507 5505 5502 5498 5495 5492 5489 5486 5483 5480 5477 5473 5469 5466 5462 5458 5454 5449 5445 5441 5437 5433 5430 5427 5424 5420 5416 5411 5404 5400 5396 5391 5386 5381 5375 5370 5363 5357 5350 5343 5336 5328 5321 5313 5305 5297 5289 5280 5272 5264 5256 5248 5240 5232 5223 5214 5204 5194 5183 5172 5161 5150 5138 5127 5115 5106 5098 5090 5083 5077 5072 5067 5063 5060 5058 5056 5053 5051 5050 5049 5048 5046 5045 5045 5045
5499 5496 5492 5489 5486 5483 5480 5478 5475 5471 5468 5465 5461 5457 5453 5449 5445 5441 5437 5433 5429 5424 5421 5418 5415 5411 5408 5403 5398 5393 5388 5383 5378 5373 5367 5361 5355 5348 5342 5335 5328 5321 5313 5305 5298 5290 5281 5273 5264 5256 5248 5241 5233 5225 5217 5208 5198 5188 5177 5166 5155 5143 5131 5120 5109 5100 5092 5085 5079 5074 5069 5065 5061 5059 5057 5055 5053 5051 5049 5048 5047 5046 5045 5045 5044
5489 5487 5484 5480 5477 5475 5472 5469 5466 5463 5459 5455 5452 5448 5444 5440 5437 5433 5429 5425 5421 5417 5413 5410 5406 5402 5398 5395 5390 5385 5380 5375 5370 5364 5358 5353 5347 5341 5334 5327 5320 5313 5306 5298 5290 5282 5274 5265 5257 5249 5241 5234 5226 5219 5210 5202 5192 5182 5171 5160 5148 5136 5124 5114 5104 5095 5088 5082 5076 5071 5067 5063 5060 5058 5056 5054 5053 5051 5050 5048 5047 5046 5045 5044 5044
5480 5478 5475 5472 5469 5466 5463 5460 5457 5454 5450 5447 5443 5440 5437 5433 5429 5426 5422 5418 5415 5411 5407 5404 5400 5396 5391 5387 5382 5378 5373 5368 5362 5357 5351 5345 5339 5333 5327 5320 5313 5306 5299 5291 5283 5275 5267 5258 5250 5243 5235 5228 5220 5212 5204 5196 5186 5176 5165 5154 5143 5130 5118 5107 5099 5092 5085 5079 5074 5069 5066 5063 5060 5058 5056 5054 5052 5051 5050 5048 5047 5046 5045 5044 5044
5472 5469 5466 5463 5461 5458 5455 5452 5449 5445 5442 5439 5436 5433 5430 5426 5423 5419 5416 5412 5408 5405 5401 5398 5394 5389 5385 5380 5376 5371 5365 5360 5355 5350 5344 5338 5332 5326 5320 5314 5307 5300 5293 5285 5277 5269 5261 5252 5244 5237 5230 5223 5215 5207 5199 5190 5180 5170 5159 5148 5137 5126 5113 5103 5094 5088 5082 5077 5072 5068 5065 5062 5060 5058 5056 5054 5052 5051 5050 5048 5047 5046 5045 5044 5044
5463 5461 5458 5455 5452 5449 5446 5443 5440 5437 5435 5432 5429 5426 5423 5420 5416 5413 5409 5405 5402 5398 5394 5391 5387 5383 5378 5374 5369 5364 5359 5354 5348 5343 5337 5332 5325 5319 5313 5307 5301 5294 5287 5279 5271 5263 5255 5246 5239 5231 5224 5217 5210 5203 5194 5185 5175 5165 5154 5143 5132 5121 5110 5100 5091 5085 5080 5075 5071 5067 5065 5062 5060 5058 5056 5054 5052 5051 5049 5048 5047 5046 5045 5044 5044
5455 5452 5449 5447 5444 5441 5438 5435 5433 5430 5428 5425 5422 5419 5416 5413 5409 5405 5402 5398 5394 5391 5387 5384 5380 5376 5372 5367 5363 5358 5353 5347 5342 5336 5330 5325 5319 5313 5307 5300 5294 5287 5280 5272 5265 5257 5249 5240 5233 5226 5219 5212 5205 5197 5189 5181 5171 5161 5150 5139 5128 5117 5107 5098 5090 5083 5078 5074 5070 5067 5065 5062 5060 5058 5056 5054 5053 5051 5049 5048 5047 5046 5045 5044 5044
5446 5444 5441 5438 5436 5433 5430 5428 5426 5423 5421 5418 5415 5412 5409 5405 5402 5398 5394 5391 5387 5384 5380 5377 5373 5369 5365 5360 5356 5351 5346 5340 5335 5329 5323 5318 5312 5306 5300 5293 5287 5280 5273 5266 5258 5250 5243 5235 5227 5220 5213 5206 5199 5192 5184 5175 5166 5157 5147 5136 5125 5114 5104 5095 5088 5082 5077 5073 5070 5067 5064 5062 5060 5059 5057 5055 5053 5051 5050 5048 5047 5046 5045 5044 5044
5438 5435 5433 5430 5428 5426 5423 5421 5419 5417 5414 5411 5408 5405 5402 5398 5395 5391 5387 5384 5380 5377 5373 5370 5366 5362 5358 5353 5349 5344 5339 5333 5328 5323 5317 5311 5305 5299 5293 5286 5280 5273 5266 5259 5251 5244 5237 5229 5222 5215 5208 5201 5194 5187 5179 5171 5162 5152 5143 5133 5122 5112 5102 5094 5087 5082 5077 5073 5070 5067 5065 5063 5061 5059 5057 5055 5053 5051 5050 5048 5047 5046 5045 5045 5044
5430 5428 5425 5423 5421 5418 5416 5414 5412 5410 5407 5404 5401 5398 5394 5391 5387 5384 5380 5377 5373 5370 5366 5362 5358 5355 5351 5346 5342 5337 5332 5326 5321 5316 5310 5304 5298 5292 5286 5279 5273 5266 5260 5253 5245 5238 5231 5224 5217 5211 5204 5197 5189 5182 5174 5166 5158 5148 5139 5129 5119 5109 5100 5093 5087 5081 5077 5073 5070 5067 5065 5063 5061 5059 5057 5055 5053 5051 5050 5048 5047 5046 5046 5045 5044
5422 5420 5418 5416 5414 5411 5410 5407 5405 5402 5400 5397 5394 5390 5387 5384 5380 5376 5373 5370 5366 5363 5359 5355 5352 5348 5344 5339 5335 5330 5325 5320 5314 5309 5303 5297 5291 5285 5279 5273 5266 5260 5254 5247 5240 5232 5225 5218 5212 5206 5199 5193 5185 5178 5170 5162 5154 5145 5136 5126 5116 5107 5099 5092 5086 5081 5077 5073 5070 5068 5065 5063 5061 5059 5057 5055 5053 5051 5050 5049 5048 5047 5046 5045 5044
5415 5413 5411 5409 5407 5405 5403 5400 5398 5395 5392 5389 5386 5383 5380 5376 5373 5369 5366 5362 5359 5356 5352 5348 5344 5340 5336 5332 5327 5323 5318 5313 5307 5302 5296 5290 5284 5278 5272 5266 5260 5254 5247 5241 5234 5227 5220 5213 5207 5201 5195 5189 5181 5174 5166 5158 5150 5141 5133 5123 5114 5105 5097 5091 5085 5080 5076 5073 5070 5068 5065 5063 5061 5059 5057 5055 5053 5051 5050 5049 5048 5047 5046 5045 5044
5408 5406 5404 5402 5400 5398 5396 5393 5391 5388 5385 5382 5379 5375 5372 5369 5365 5362 5359 5355 5352 5348 5345 5341 5337 5333 5329 5325 5320 5316 5311 5305 5300 5295 5289 5283 5278 5272 5266 5260 5254 5248 5241 5234 5228 5221 5215 5208 5202 5197 5191 5184 5178 5170 5163 5155 5147 5138 5130 5121 5112 5103 5095 5089 5084 5080 5076 5073 5070 5068 5065 5063 5061 5059 5057 5055 5053 5051 5050 5049 5048 5047 5046 5045 5045
5401 5399 5397 5395 5393 5391 5389 5386 5383 5380 5377 5374 5371 5368 5365 5361 5358 5355 5351 5348 5345 5341 5338 5334 5330 5326 5322 5318 5313 5308 5303 5298 5293 5288 5282 5277 5271 5266 5260 5254 5248 5241 5235 5228 5222 5216 5210 5204 5198 5192 5186 5180 5174 5167 5160 5153 5145 5136 5128 5119 5110 5102 5094 5088 5083 5079 5076 5073 5070 5067 5065 5063 5061 5058 5056 5055 5053 5051 5050 5049 5048 5047 5046 5046 5045
5395 5393 5391 5388 5386 5384 5381 5378 5375 5372 5369 5366 5363 5360 5357 5354 5351 5347 5344 5341 5338 5334 5331 5327 5323 5319 5315 5310 5306 5301 5296 5291 5286 5281 5276 5270 5265 5259 5254 5248 5242 5236 5229 5223 5217 5211 5205 5199 5194 5188 5182 5176 5170 5164 5157 5150 5142 5134 5127 5118 5109 5101 5093 5086 5081 5078 5075 5072 5070 5067 5065 5063 5060 5058 5056 5054 5053 5051 5050 5049 5048 5047 5046 5046 5045